Year,Month,Day,Hour,Minute,Value (Times are PST for temperature in C)
2021,06,25,00,00,17.70
2021,06,25,00,01,17.70
2021,06,25,00,02,17.70
2021,06,25,00,03,17.60
2021,06,25,00,04,17.60
2021,06,25,00,05,17.60
2021,06,25,00,06,17.60
2021,06,25,00,07,17.60
2021,06,25,00,08,17.60
2021,06,25,00,09,17.60
2021,06,25,00,10,17.60
2021,06,25,00,11,17.60
2021,06,25,00,12,17.60
2021,06,25,00,13,17.60
2021,06,25,00,14,17.60
2021,06,25,00,15,17.60
2021,06,25,00,16,17.60
2021,06,25,00,17,17.60
2021,06,25,00,18,17.60
2021,06,25,00,19,17.50
2021,06,25,00,20,17.50
2021,06,25,00,21,17.50
2021,06,25,00,22,17.50
2021,06,25,00,23,17.50
2021,06,25,00,24,17.40
2021,06,25,00,25,17.40
2021,06,25,00,26,17.40
2021,06,25,00,27,17.40
2021,06,25,00,28,17.40
2021,06,25,00,29,17.40
2021,06,25,00,30,17.40
2021,06,25,00,31,17.40
2021,06,25,00,32,17.40
2021,06,25,00,33,17.40
2021,06,25,00,34,17.40
2021,06,25,00,35,17.40
2021,06,25,00,36,17.40
2021,06,25,00,37,17.40
2021,06,25,00,38,17.40
2021,06,25,00,39,17.40
2021,06,25,00,40,17.40
2021,06,25,00,41,17.40
2021,06,25,00,42,17.40
2021,06,25,00,43,17.40
2021,06,25,00,44,17.40
2021,06,25,00,45,17.40
2021,06,25,00,46,17.40
2021,06,25,00,47,17.40
2021,06,25,00,48,17.40
2021,06,25,00,49,17.30
2021,06,25,00,50,17.30
2021,06,25,00,51,17.30
2021,06,25,00,52,17.30
2021,06,25,00,53,17.30
2021,06,25,00,54,17.30
2021,06,25,00,55,17.40
2021,06,25,00,56,17.40
2021,06,25,00,57,17.40
2021,06,25,00,58,17.40
2021,06,25,00,59,17.40
2021,06,25,01,00,17.40
2021,06,25,01,01,17.50
2021,06,25,01,02,17.50
2021,06,25,01,03,17.50
2021,06,25,01,04,17.60
2021,06,25,01,05,17.60
2021,06,25,01,06,17.60
2021,06,25,01,07,17.60
2021,06,25,01,08,17.60
2021,06,25,01,09,17.60
2021,06,25,01,10,17.60
2021,06,25,01,11,17.60
2021,06,25,01,12,17.60
2021,06,25,01,13,17.60
2021,06,25,01,14,17.60
2021,06,25,01,15,17.60
2021,06,25,01,16,17.60
2021,06,25,01,17,17.70
2021,06,25,01,18,17.70
2021,06,25,01,19,17.70
2021,06,25,01,20,17.70
2021,06,25,01,21,17.70
2021,06,25,01,22,17.80
2021,06,25,01,23,17.80
2021,06,25,01,24,17.80
2021,06,25,01,25,17.80
2021,06,25,01,26,17.80
2021,06,25,01,27,17.80
2021,06,25,01,28,17.80
2021,06,25,01,29,17.80
2021,06,25,01,30,17.90
2021,06,25,01,31,17.90
2021,06,25,01,32,17.90
2021,06,25,01,33,17.90
2021,06,25,01,34,17.90
2021,06,25,01,35,17.80
2021,06,25,01,36,17.80
2021,06,25,01,37,17.80
2021,06,25,01,38,17.80
2021,06,25,01,39,17.80
2021,06,25,01,40,17.80
2021,06,25,01,41,17.80
2021,06,25,01,42,17.80
2021,06,25,01,43,17.80
2021,06,25,01,44,17.90
2021,06,25,01,45,17.90
2021,06,25,01,46,17.90
2021,06,25,01,47,17.90
2021,06,25,01,48,17.90
2021,06,25,01,49,17.90
2021,06,25,01,50,17.90
2021,06,25,01,51,17.90
2021,06,25,01,52,17.90
2021,06,25,01,53,17.90
2021,06,25,01,54,17.90
2021,06,25,01,55,17.90
2021,06,25,01,56,17.90
2021,06,25,01,57,17.90
2021,06,25,01,58,17.90
2021,06,25,01,59,17.90
2021,06,25,02,00,17.90
2021,06,25,02,01,17.80
2021,06,25,02,02,17.80
2021,06,25,02,03,17.80
2021,06,25,02,04,17.80
2021,06,25,02,05,17.80
2021,06,25,02,06,17.80
2021,06,25,02,07,17.80
2021,06,25,02,08,17.80
2021,06,25,02,09,17.80
2021,06,25,02,10,17.80
2021,06,25,02,11,17.80
2021,06,25,02,12,17.80
2021,06,25,02,13,17.80
2021,06,25,02,14,17.80
2021,06,25,02,15,17.80
2021,06,25,02,16,17.80
2021,06,25,02,17,17.80
2021,06,25,02,18,17.80
2021,06,25,02,19,17.90
2021,06,25,02,20,17.90
2021,06,25,02,21,17.90
2021,06,25,02,22,17.90
2021,06,25,02,23,17.90
2021,06,25,02,24,17.90
2021,06,25,02,25,17.90
2021,06,25,02,26,17.90
2021,06,25,02,27,17.90
2021,06,25,02,28,17.90
2021,06,25,02,29,17.90
2021,06,25,02,30,17.90
2021,06,25,02,31,17.90
2021,06,25,02,32,17.90
2021,06,25,02,33,17.90
2021,06,25,02,34,17.90
2021,06,25,02,35,17.90
2021,06,25,02,36,17.90
2021,06,25,02,37,17.90
2021,06,25,02,38,17.90
2021,06,25,02,39,17.90
2021,06,25,02,40,17.90
2021,06,25,02,41,17.90
2021,06,25,02,42,17.90
2021,06,25,02,43,17.80
2021,06,25,02,44,17.80
2021,06,25,02,45,17.80
2021,06,25,02,46,17.80
2021,06,25,02,47,17.70
2021,06,25,02,48,17.70
2021,06,25,02,49,17.70
2021,06,25,02,50,17.70
2021,06,25,02,51,17.70
2021,06,25,02,52,17.70
2021,06,25,02,53,17.70
2021,06,25,02,54,17.70
2021,06,25,02,55,17.70
2021,06,25,02,56,17.70
2021,06,25,02,57,17.70
2021,06,25,02,58,17.70
2021,06,25,02,59,17.80
2021,06,25,03,00,17.80
2021,06,25,03,01,17.70
2021,06,25,03,02,17.70
2021,06,25,03,03,17.70
2021,06,25,03,04,17.80
2021,06,25,03,05,17.70
2021,06,25,03,06,17.80
2021,06,25,03,07,17.80
2021,06,25,03,08,17.80
2021,06,25,03,09,17.80
2021,06,25,03,10,17.80
2021,06,25,03,11,17.70
2021,06,25,03,12,17.70
2021,06,25,03,13,17.70
2021,06,25,03,14,17.70
2021,06,25,03,15,17.70
2021,06,25,03,16,17.70
2021,06,25,03,17,17.70
2021,06,25,03,18,17.70
2021,06,25,03,19,17.70
2021,06,25,03,20,17.70
2021,06,25,03,21,17.70
2021,06,25,03,22,17.70
2021,06,25,03,23,17.60
2021,06,25,03,24,17.60
2021,06,25,03,25,17.60
2021,06,25,03,26,17.60
2021,06,25,03,27,17.60
2021,06,25,03,28,17.60
2021,06,25,03,29,17.50
2021,06,25,03,30,17.50
2021,06,25,03,31,17.50
2021,06,25,03,32,17.50
2021,06,25,03,33,17.50
2021,06,25,03,34,17.50
2021,06,25,03,35,17.50
2021,06,25,03,36,17.50
2021,06,25,03,37,17.40
2021,06,25,03,38,17.50
2021,06,25,03,39,17.40
2021,06,25,03,40,17.40
2021,06,25,03,41,17.40
2021,06,25,03,42,17.40
2021,06,25,03,43,17.40
2021,06,25,03,44,17.40
2021,06,25,03,45,17.30
2021,06,25,03,46,17.30
2021,06,25,03,47,17.30
2021,06,25,03,48,17.20
2021,06,25,03,49,17.20
2021,06,25,03,50,17.20
2021,06,25,03,51,17.10
2021,06,25,03,52,17.10
2021,06,25,03,53,17.10
2021,06,25,03,54,17.10
2021,06,25,03,55,17.10
2021,06,25,03,56,17.10
2021,06,25,03,57,17.00
2021,06,25,03,58,17.00
2021,06,25,03,59,17.00
2021,06,25,04,00,17.00
2021,06,25,04,01,17.00
2021,06,25,04,02,17.00
2021,06,25,04,03,17.00
2021,06,25,04,04,17.00
2021,06,25,04,05,16.90
2021,06,25,04,06,16.90
2021,06,25,04,07,16.90
2021,06,25,04,08,16.90
2021,06,25,04,09,16.90
2021,06,25,04,10,16.90
2021,06,25,04,11,16.90
2021,06,25,04,12,16.90
2021,06,25,04,13,16.90
2021,06,25,04,14,17.00
2021,06,25,04,15,17.00
2021,06,25,04,16,17.00
2021,06,25,04,17,17.00
2021,06,25,04,18,17.00
2021,06,25,04,19,17.00
2021,06,25,04,20,17.00
2021,06,25,04,21,16.90
2021,06,25,04,22,16.90
2021,06,25,04,23,16.90
2021,06,25,04,24,16.90
2021,06,25,04,25,16.90
2021,06,25,04,26,16.90
2021,06,25,04,27,16.90
2021,06,25,04,28,16.90
2021,06,25,04,29,16.90
2021,06,25,04,30,16.90
2021,06,25,04,31,16.90
2021,06,25,04,32,16.90
2021,06,25,04,33,16.90
2021,06,25,04,34,16.90
2021,06,25,04,35,16.90
2021,06,25,04,36,16.90
2021,06,25,04,37,16.90
2021,06,25,04,38,16.90
2021,06,25,04,39,16.90
2021,06,25,04,40,16.90
2021,06,25,04,41,16.90
2021,06,25,04,42,16.90
2021,06,25,04,43,16.90
2021,06,25,04,44,16.90
2021,06,25,04,45,16.90
2021,06,25,04,46,16.90
2021,06,25,04,47,16.90
2021,06,25,04,48,16.90
2021,06,25,04,49,16.90
2021,06,25,04,50,16.90
2021,06,25,04,51,16.90
2021,06,25,04,52,16.90
2021,06,25,04,53,16.90
2021,06,25,04,54,16.90
2021,06,25,04,55,16.90
2021,06,25,04,56,16.90
2021,06,25,04,57,16.90
2021,06,25,04,58,16.80
2021,06,25,04,59,16.80
2021,06,25,05,00,16.80
2021,06,25,05,01,16.80
2021,06,25,05,02,16.80
2021,06,25,05,03,16.80
2021,06,25,05,04,16.80
2021,06,25,05,05,16.80
2021,06,25,05,06,16.70
2021,06,25,05,07,16.70
2021,06,25,05,08,16.70
2021,06,25,05,09,16.70
2021,06,25,05,10,16.70
2021,06,25,05,11,16.70
2021,06,25,05,12,16.70
2021,06,25,05,13,16.70
2021,06,25,05,14,16.70
2021,06,25,05,15,16.70
2021,06,25,05,16,16.70
2021,06,25,05,17,16.70
2021,06,25,05,18,16.70
2021,06,25,05,19,16.70
2021,06,25,05,20,16.60
2021,06,25,05,21,16.60
2021,06,25,05,22,16.60
2021,06,25,05,23,16.60
2021,06,25,05,24,16.60
2021,06,25,05,25,16.50
2021,06,25,05,26,16.50
2021,06,25,05,27,16.50
2021,06,25,05,28,16.50
2021,06,25,05,29,16.40
2021,06,25,05,30,16.40
2021,06,25,05,31,16.40
2021,06,25,05,32,16.40
2021,06,25,05,33,16.30
2021,06,25,05,34,16.30
2021,06,25,05,35,16.30
2021,06,25,05,36,16.30
2021,06,25,05,37,16.30
2021,06,25,05,38,16.30
2021,06,25,05,39,16.30
2021,06,25,05,40,16.30
2021,06,25,05,41,16.30
2021,06,25,05,42,16.30
2021,06,25,05,43,16.30
2021,06,25,05,44,16.30
2021,06,25,05,45,16.30
2021,06,25,05,46,16.30
2021,06,25,05,47,16.30
2021,06,25,05,48,16.30
2021,06,25,05,49,16.30
2021,06,25,05,50,16.30
2021,06,25,05,51,16.30
2021,06,25,05,52,16.30
2021,06,25,05,53,16.30
2021,06,25,05,54,16.20
2021,06,25,05,55,16.20
2021,06,25,05,56,16.10
2021,06,25,05,57,16.00
2021,06,25,05,58,15.90
2021,06,25,05,59,15.80
2021,06,25,06,00,15.70
2021,06,25,06,01,15.50
2021,06,25,06,02,15.40
2021,06,25,06,03,15.30
2021,06,25,06,04,15.10
2021,06,25,06,05,15.00
2021,06,25,06,06,14.90
2021,06,25,06,07,14.80
2021,06,25,06,08,14.80
2021,06,25,06,09,14.80
2021,06,25,06,10,14.70
2021,06,25,06,11,14.70
2021,06,25,06,12,14.70
2021,06,25,06,13,14.70
2021,06,25,06,14,14.70
2021,06,25,06,15,14.70
2021,06,25,06,16,14.70
2021,06,25,06,17,14.70
2021,06,25,06,18,14.70
2021,06,25,06,19,14.70
2021,06,25,06,20,14.70
2021,06,25,06,21,14.80
2021,06,25,06,22,14.80
2021,06,25,06,23,14.80
2021,06,25,06,24,14.80
2021,06,25,06,25,14.80
2021,06,25,06,26,14.80
2021,06,25,06,27,14.90
2021,06,25,06,28,14.90
2021,06,25,06,29,14.90
2021,06,25,06,30,14.90
2021,06,25,06,31,15.00
2021,06,25,06,32,15.00
2021,06,25,06,33,15.00
2021,06,25,06,34,15.10
2021,06,25,06,35,15.10
2021,06,25,06,36,15.10
2021,06,25,06,37,15.20
2021,06,25,06,38,15.20
2021,06,25,06,39,15.30
2021,06,25,06,40,15.30
2021,06,25,06,41,15.40
2021,06,25,06,42,15.40
2021,06,25,06,43,15.50
2021,06,25,06,44,15.50
2021,06,25,06,45,15.60
2021,06,25,06,46,15.60
2021,06,25,06,47,15.70
2021,06,25,06,48,15.70
2021,06,25,06,49,15.80
2021,06,25,06,50,15.80
2021,06,25,06,51,15.90
2021,06,25,06,52,15.90
2021,06,25,06,53,16.00
2021,06,25,06,54,16.10
2021,06,25,06,55,16.10
2021,06,25,06,56,16.20
2021,06,25,06,57,16.20
2021,06,25,06,58,16.20
2021,06,25,06,59,16.30
2021,06,25,07,00,16.30
2021,06,25,07,01,16.40
2021,06,25,07,02,16.40
2021,06,25,07,03,16.50
2021,06,25,07,04,16.60
2021,06,25,07,05,16.60
2021,06,25,07,06,16.70
2021,06,25,07,07,16.70
2021,06,25,07,08,16.80
2021,06,25,07,09,16.80
2021,06,25,07,10,16.90
2021,06,25,07,11,16.90
2021,06,25,07,12,17.00
2021,06,25,07,13,17.00
2021,06,25,07,14,17.10
2021,06,25,07,15,17.10
2021,06,25,07,16,17.20
2021,06,25,07,17,17.20
2021,06,25,07,18,17.30
2021,06,25,07,19,17.40
2021,06,25,07,20,17.50
2021,06,25,07,21,17.50
2021,06,25,07,22,17.60
2021,06,25,07,23,17.70
2021,06,25,07,24,17.80
2021,06,25,07,25,17.80
2021,06,25,07,26,17.90
2021,06,25,07,27,17.90
2021,06,25,07,28,18.00
2021,06,25,07,29,18.10
2021,06,25,07,30,18.20
2021,06,25,07,31,18.20
2021,06,25,07,32,18.30
2021,06,25,07,33,18.30
2021,06,25,07,34,18.40
2021,06,25,07,35,18.40
2021,06,25,07,36,18.50
2021,06,25,07,37,18.60
2021,06,25,07,38,18.60
2021,06,25,07,39,18.70
2021,06,25,07,40,18.70
2021,06,25,07,41,18.70
2021,06,25,07,42,18.70
2021,06,25,07,43,18.70
2021,06,25,07,44,18.70
2021,06,25,07,45,18.70
2021,06,25,07,46,18.70
2021,06,25,07,47,18.70
2021,06,25,07,48,18.70
2021,06,25,07,49,18.70
2021,06,25,07,50,18.70
2021,06,25,07,51,18.70
2021,06,25,07,52,18.70
2021,06,25,07,53,18.80
2021,06,25,07,54,18.80
2021,06,25,07,55,18.80
2021,06,25,07,56,18.90
2021,06,25,07,57,19.00
2021,06,25,07,58,19.00
2021,06,25,07,59,19.10
2021,06,25,08,00,19.10
2021,06,25,08,01,19.20
2021,06,25,08,02,19.20
2021,06,25,08,03,19.30
2021,06,25,08,04,19.30
2021,06,25,08,05,19.30
2021,06,25,08,06,19.40
2021,06,25,08,07,19.40
2021,06,25,08,08,19.40
2021,06,25,08,09,19.50
2021,06,25,08,10,19.50
2021,06,25,08,11,19.50
2021,06,25,08,12,19.60
2021,06,25,08,13,19.60
2021,06,25,08,14,19.60
2021,06,25,08,15,19.70
2021,06,25,08,16,19.70
2021,06,25,08,17,19.70
2021,06,25,08,18,19.80
2021,06,25,08,19,19.80
2021,06,25,08,20,19.90
2021,06,25,08,21,19.90
2021,06,25,08,22,20.00
2021,06,25,08,23,20.10
2021,06,25,08,24,20.10
2021,06,25,08,25,20.20
2021,06,25,08,26,20.20
2021,06,25,08,27,20.30
2021,06,25,08,28,20.30
2021,06,25,08,29,20.40
2021,06,25,08,30,20.40
2021,06,25,08,31,20.40
2021,06,25,08,32,20.50
2021,06,25,08,33,20.60
2021,06,25,08,34,20.60
2021,06,25,08,35,20.70
2021,06,25,08,36,20.70
2021,06,25,08,37,20.80
2021,06,25,08,38,20.90
2021,06,25,08,39,21.00
2021,06,25,08,40,21.10
2021,06,25,08,41,21.20
2021,06,25,08,42,21.30
2021,06,25,08,43,21.30
2021,06,25,08,44,21.30
2021,06,25,08,45,21.30
2021,06,25,08,46,21.30
2021,06,25,08,47,21.40
2021,06,25,08,48,21.40
2021,06,25,08,49,21.40
2021,06,25,08,50,21.50
2021,06,25,08,51,21.50
2021,06,25,08,52,21.60
2021,06,25,08,53,21.60
2021,06,25,08,54,21.60
2021,06,25,08,55,21.60
2021,06,25,08,56,21.70
2021,06,25,08,57,21.70
2021,06,25,08,58,21.70
2021,06,25,08,59,21.70
2021,06,25,09,00,21.70
2021,06,25,09,01,21.70
2021,06,25,09,02,21.70
2021,06,25,09,03,21.70
2021,06,25,09,04,21.70
2021,06,25,09,05,21.70
2021,06,25,09,06,21.70
2021,06,25,09,07,21.70
2021,06,25,09,08,21.70
2021,06,25,09,09,21.80
2021,06,25,09,10,21.80
2021,06,25,09,11,21.80
2021,06,25,09,12,21.80
2021,06,25,09,13,21.80
2021,06,25,09,14,21.80
2021,06,25,09,15,21.80
2021,06,25,09,16,21.80
2021,06,25,09,17,21.80
2021,06,25,09,18,21.80
2021,06,25,09,19,21.90
2021,06,25,09,20,21.90
2021,06,25,09,21,21.90
2021,06,25,09,22,22.00
2021,06,25,09,23,22.10
2021,06,25,09,24,22.10
2021,06,25,09,25,22.20
2021,06,25,09,26,22.20
2021,06,25,09,27,22.30
2021,06,25,09,28,22.40
2021,06,25,09,29,22.50
2021,06,25,09,30,22.50
2021,06,25,09,31,22.60
2021,06,25,09,32,22.60
2021,06,25,09,33,22.60
2021,06,25,09,34,22.60
2021,06,25,09,35,22.60
2021,06,25,09,36,22.60
2021,06,25,09,37,22.60
2021,06,25,09,38,22.60
2021,06,25,09,39,22.60
2021,06,25,09,40,22.70
2021,06,25,09,41,22.70
2021,06,25,09,42,22.80
2021,06,25,09,43,22.90
2021,06,25,09,44,23.00
2021,06,25,09,45,23.10
2021,06,25,09,46,23.20
2021,06,25,09,47,23.20
2021,06,25,09,48,23.30
2021,06,25,09,49,23.30
2021,06,25,09,50,23.40
2021,06,25,09,51,23.40
2021,06,25,09,52,23.30
2021,06,25,09,53,23.20
2021,06,25,09,54,23.10
2021,06,25,09,55,23.00
2021,06,25,09,56,22.90
2021,06,25,09,57,22.90
2021,06,25,09,58,22.90
2021,06,25,09,59,22.90
2021,06,25,10,00,22.90
2021,06,25,10,01,22.90
2021,06,25,10,02,22.90
2021,06,25,10,03,23.00
2021,06,25,10,04,23.00
2021,06,25,10,05,23.10
2021,06,25,10,06,23.20
2021,06,25,10,07,23.20
2021,06,25,10,08,23.30
2021,06,25,10,09,23.30
2021,06,25,10,10,23.30
2021,06,25,10,11,23.30
2021,06,25,10,12,23.40
2021,06,25,10,13,23.40
2021,06,25,10,14,23.40
2021,06,25,10,15,23.50
2021,06,25,10,16,23.50
2021,06,25,10,17,23.40
2021,06,25,10,18,23.50
2021,06,25,10,19,23.50
2021,06,25,10,20,23.60
2021,06,25,10,21,23.70
2021,06,25,10,22,23.70
2021,06,25,10,23,23.80
2021,06,25,10,24,23.90
2021,06,25,10,25,24.00
2021,06,25,10,26,24.10
2021,06,25,10,27,24.20
2021,06,25,10,28,24.30
2021,06,25,10,29,24.30
2021,06,25,10,30,24.30
2021,06,25,10,31,24.40
2021,06,25,10,32,24.40
2021,06,25,10,33,24.30
2021,06,25,10,34,24.40
2021,06,25,10,35,24.30
2021,06,25,10,36,24.30
2021,06,25,10,37,24.20
2021,06,25,10,38,24.20
2021,06,25,10,39,24.10
2021,06,25,10,40,24.10
2021,06,25,10,41,24.00
2021,06,25,10,42,23.90
2021,06,25,10,43,23.90
2021,06,25,10,44,23.80
2021,06,25,10,45,23.70
2021,06,25,10,46,23.60
2021,06,25,10,47,23.60
2021,06,25,10,48,23.60
2021,06,25,10,49,23.60
2021,06,25,10,50,23.60
2021,06,25,10,51,23.60
2021,06,25,10,52,23.60
2021,06,25,10,53,23.60
2021,06,25,10,54,23.70
2021,06,25,10,55,23.70
2021,06,25,10,56,23.70
2021,06,25,10,57,23.80
2021,06,25,10,58,23.90
2021,06,25,10,59,24.00
2021,06,25,11,00,24.10
2021,06,25,11,01,24.20
2021,06,25,11,02,24.30
2021,06,25,11,03,24.40
2021,06,25,11,04,24.50
2021,06,25,11,05,24.60
2021,06,25,11,06,24.70
2021,06,25,11,07,24.70
2021,06,25,11,08,24.80
2021,06,25,11,09,24.80
2021,06,25,11,10,24.80
2021,06,25,11,11,24.90
2021,06,25,11,12,24.90
2021,06,25,11,13,24.80
2021,06,25,11,14,24.80
2021,06,25,11,15,24.80
2021,06,25,11,16,24.90
2021,06,25,11,17,24.80
2021,06,25,11,18,24.80
2021,06,25,11,19,24.80
2021,06,25,11,20,24.80
2021,06,25,11,21,24.80
2021,06,25,11,22,24.80
2021,06,25,11,23,24.80
2021,06,25,11,24,24.90
2021,06,25,11,25,25.00
2021,06,25,11,26,25.00
2021,06,25,11,27,25.10
2021,06,25,11,28,25.10
2021,06,25,11,29,25.10
2021,06,25,11,30,25.20
2021,06,25,11,31,25.30
2021,06,25,11,32,25.40
2021,06,25,11,33,25.40
2021,06,25,11,34,25.40
2021,06,25,11,35,25.40
2021,06,25,11,36,25.40
2021,06,25,11,37,25.40
2021,06,25,11,38,25.40
2021,06,25,11,39,25.40
2021,06,25,11,40,25.40
2021,06,25,11,41,25.50
2021,06,25,11,42,25.60
2021,06,25,11,43,25.60
2021,06,25,11,44,25.70
2021,06,25,11,45,25.70
2021,06,25,11,46,25.80
2021,06,25,11,47,25.80
2021,06,25,11,48,25.90
2021,06,25,11,49,26.00
2021,06,25,11,50,26.10
2021,06,25,11,51,26.20
2021,06,25,11,52,26.20
2021,06,25,11,53,26.20
2021,06,25,11,54,26.20
2021,06,25,11,55,26.30
2021,06,25,11,56,26.30
2021,06,25,11,57,26.40
2021,06,25,11,58,26.50
2021,06,25,11,59,26.60
2021,06,25,12,00,26.60
2021,06,25,12,01,26.70
2021,06,25,12,02,26.80
2021,06,25,12,03,26.80
2021,06,25,12,04,26.90
2021,06,25,12,05,26.80
2021,06,25,12,06,26.60
2021,06,25,12,07,26.50
2021,06,25,12,08,26.30
2021,06,25,12,09,26.20
2021,06,25,12,10,26.10
2021,06,25,12,11,25.90
2021,06,25,12,12,25.70
2021,06,25,12,13,25.60
2021,06,25,12,14,25.50
2021,06,25,12,15,25.40
2021,06,25,12,16,25.30
2021,06,25,12,17,25.30
2021,06,25,12,18,25.30
2021,06,25,12,19,25.30
2021,06,25,12,20,25.30
2021,06,25,12,21,25.40
2021,06,25,12,22,25.30
2021,06,25,12,23,25.30
2021,06,25,12,24,25.30
2021,06,25,12,25,25.30
2021,06,25,12,26,25.40
2021,06,25,12,27,25.40
2021,06,25,12,28,25.40
2021,06,25,12,29,25.40
2021,06,25,12,30,25.40
2021,06,25,12,31,25.40
2021,06,25,12,32,25.40
2021,06,25,12,33,25.30
2021,06,25,12,34,25.30
2021,06,25,12,35,25.30
2021,06,25,12,36,25.40
2021,06,25,12,37,25.40
2021,06,25,12,38,25.60
2021,06,25,12,39,25.70
2021,06,25,12,40,25.70
2021,06,25,12,41,25.70
2021,06,25,12,42,25.80
2021,06,25,12,43,25.90
2021,06,25,12,44,26.00
2021,06,25,12,45,26.10
2021,06,25,12,46,26.30
2021,06,25,12,47,26.30
2021,06,25,12,48,26.30
2021,06,25,12,49,26.30
2021,06,25,12,50,26.30
2021,06,25,12,51,26.20
2021,06,25,12,52,26.20
2021,06,25,12,53,26.10
2021,06,25,12,54,26.10
2021,06,25,12,55,26.20
2021,06,25,12,56,26.20
2021,06,25,12,57,26.40
2021,06,25,12,58,26.50
2021,06,25,12,59,26.70
2021,06,25,13,00,26.80
2021,06,25,13,01,26.90
2021,06,25,13,02,27.00
2021,06,25,13,03,27.10
2021,06,25,13,04,27.10
2021,06,25,13,05,27.20
2021,06,25,13,06,27.20
2021,06,25,13,07,27.10
2021,06,25,13,08,27.20
2021,06,25,13,09,27.20
2021,06,25,13,10,27.30
2021,06,25,13,11,27.30
2021,06,25,13,12,27.40
2021,06,25,13,13,27.40
2021,06,25,13,14,27.30
2021,06,25,13,15,27.40
2021,06,25,13,16,27.40
2021,06,25,13,17,27.50
2021,06,25,13,18,27.60
2021,06,25,13,19,27.70
2021,06,25,13,20,27.80
2021,06,25,13,21,27.80
2021,06,25,13,22,27.80
2021,06,25,13,23,27.90
2021,06,25,13,24,27.90
2021,06,25,13,25,27.80
2021,06,25,13,26,27.70
2021,06,25,13,27,27.70
2021,06,25,13,28,27.70
2021,06,25,13,29,27.60
2021,06,25,13,30,27.60
2021,06,25,13,31,27.60
2021,06,25,13,32,27.60
2021,06,25,13,33,27.60
2021,06,25,13,34,27.50
2021,06,25,13,35,27.40
2021,06,25,13,36,27.40
2021,06,25,13,37,27.50
2021,06,25,13,38,27.50
2021,06,25,13,39,27.60
2021,06,25,13,40,27.60
2021,06,25,13,41,27.70
2021,06,25,13,42,27.80
2021,06,25,13,43,27.90
2021,06,25,13,44,28.00
2021,06,25,13,45,28.10
2021,06,25,13,46,28.20
2021,06,25,13,47,28.20
2021,06,25,13,48,28.20
2021,06,25,13,49,28.20
2021,06,25,13,50,28.20
2021,06,25,13,51,28.20
2021,06,25,13,52,28.20
2021,06,25,13,53,28.10
2021,06,25,13,54,28.20
2021,06,25,13,55,28.20
2021,06,25,13,56,28.20
2021,06,25,13,57,28.30
2021,06,25,13,58,28.40
2021,06,25,13,59,28.40
2021,06,25,14,00,28.30
2021,06,25,14,01,28.20
2021,06,25,14,02,28.10
2021,06,25,14,03,28.10
2021,06,25,14,04,28.00
2021,06,25,14,05,28.10
2021,06,25,14,06,28.10
2021,06,25,14,07,28.10
2021,06,25,14,08,28.10
2021,06,25,14,09,28.10
2021,06,25,14,10,28.10
2021,06,25,14,11,28.10
2021,06,25,14,12,28.20
2021,06,25,14,13,28.20
2021,06,25,14,14,28.30
2021,06,25,14,15,28.40
2021,06,25,14,16,28.50
2021,06,25,14,17,28.60
2021,06,25,14,18,28.70
2021,06,25,14,19,28.80
2021,06,25,14,20,28.80
2021,06,25,14,21,28.70
2021,06,25,14,22,28.40
2021,06,25,14,23,28.20
2021,06,25,14,24,28.20
2021,06,25,14,25,28.20
2021,06,25,14,26,28.00
2021,06,25,14,27,28.00
2021,06,25,14,28,27.90
2021,06,25,14,29,28.00
2021,06,25,14,30,28.10
2021,06,25,14,31,28.10
2021,06,25,14,32,28.10
2021,06,25,14,33,28.20
2021,06,25,14,34,28.20
2021,06,25,14,35,28.20
2021,06,25,14,36,28.20
2021,06,25,14,37,28.30
2021,06,25,14,38,28.30
2021,06,25,14,39,28.30
2021,06,25,14,40,28.30
2021,06,25,14,41,28.30
2021,06,25,14,42,28.30
2021,06,25,14,43,28.30
2021,06,25,14,44,28.20
2021,06,25,14,45,28.20
2021,06,25,14,46,28.20
2021,06,25,14,47,28.20
2021,06,25,14,48,28.30
2021,06,25,14,49,28.30
2021,06,25,14,50,28.40
2021,06,25,14,51,28.50
2021,06,25,14,52,28.60
2021,06,25,14,53,28.70
2021,06,25,14,54,28.80
2021,06,25,14,55,28.80
2021,06,25,14,56,28.90
2021,06,25,14,57,28.90
2021,06,25,14,58,28.90
2021,06,25,14,59,28.90
2021,06,25,15,00,28.90
2021,06,25,15,01,28.80
2021,06,25,15,02,28.80
2021,06,25,15,03,28.70
2021,06,25,15,04,28.70
2021,06,25,15,05,28.70
2021,06,25,15,06,28.70
2021,06,25,15,07,28.60
2021,06,25,15,08,28.60
2021,06,25,15,09,28.70
2021,06,25,15,10,28.70
2021,06,25,15,11,28.70
2021,06,25,15,12,28.70
2021,06,25,15,13,28.90
2021,06,25,15,14,29.00
2021,06,25,15,15,29.10
2021,06,25,15,16,29.20
2021,06,25,15,17,29.20
2021,06,25,15,18,29.30
2021,06,25,15,19,29.50
2021,06,25,15,20,29.50
2021,06,25,15,21,29.40
2021,06,25,15,22,29.40
2021,06,25,15,23,29.20
2021,06,25,15,24,29.10
2021,06,25,15,25,29.00
2021,06,25,15,26,29.00
2021,06,25,15,27,29.00
2021,06,25,15,28,29.00
2021,06,25,15,29,29.00
2021,06,25,15,30,29.00
2021,06,25,15,31,29.10
2021,06,25,15,32,29.20
2021,06,25,15,33,29.20
2021,06,25,15,34,29.20
2021,06,25,15,35,29.20
2021,06,25,15,36,29.20
2021,06,25,15,37,29.20
2021,06,25,15,38,29.20
2021,06,25,15,39,29.20
2021,06,25,15,40,29.20
2021,06,25,15,41,29.20
2021,06,25,15,42,29.20
2021,06,25,15,43,29.20
2021,06,25,15,44,29.30
2021,06,25,15,45,29.40
2021,06,25,15,46,29.40
2021,06,25,15,47,29.40
2021,06,25,15,48,29.40
2021,06,25,15,49,29.40
2021,06,25,15,50,29.40
2021,06,25,15,51,29.40
2021,06,25,15,52,29.50
2021,06,25,15,53,29.60
2021,06,25,15,54,29.60
2021,06,25,15,55,29.60
2021,06,25,15,56,29.70
2021,06,25,15,57,29.80
2021,06,25,15,58,29.80
2021,06,25,15,59,29.80
2021,06,25,16,00,29.70
2021,06,25,16,01,29.70
2021,06,25,16,02,29.70
2021,06,25,16,03,29.80
2021,06,25,16,04,29.90
2021,06,25,16,05,30.00
2021,06,25,16,06,30.10
2021,06,25,16,07,30.20
2021,06,25,16,08,30.30
2021,06,25,16,09,30.50
2021,06,25,16,10,30.60
2021,06,25,16,11,30.60
2021,06,25,16,12,30.50
2021,06,25,16,13,30.40
2021,06,25,16,14,30.30
2021,06,25,16,15,30.30
2021,06,25,16,16,30.30
2021,06,25,16,17,30.30
2021,06,25,16,18,30.40
2021,06,25,16,19,30.50
2021,06,25,16,20,30.60
2021,06,25,16,21,30.60
2021,06,25,16,22,30.50
2021,06,25,16,23,30.40
2021,06,25,16,24,30.30
2021,06,25,16,25,30.30
2021,06,25,16,26,30.20
2021,06,25,16,27,30.20
2021,06,25,16,28,30.20
2021,06,25,16,29,30.30
2021,06,25,16,30,30.30
2021,06,25,16,31,30.30
2021,06,25,16,32,30.30
2021,06,25,16,33,30.30
2021,06,25,16,34,30.30
2021,06,25,16,35,30.30
2021,06,25,16,36,30.40
2021,06,25,16,37,30.40
2021,06,25,16,38,30.50
2021,06,25,16,39,30.50
2021,06,25,16,40,30.50
2021,06,25,16,41,30.40
2021,06,25,16,42,30.30
2021,06,25,16,43,30.30
2021,06,25,16,44,30.30
2021,06,25,16,45,30.30
2021,06,25,16,46,30.30
2021,06,25,16,47,30.30
2021,06,25,16,48,30.30
2021,06,25,16,49,30.50
2021,06,25,16,50,30.60
2021,06,25,16,51,30.60
2021,06,25,16,52,30.60
2021,06,25,16,53,30.50
2021,06,25,16,54,30.50
2021,06,25,16,55,30.40
2021,06,25,16,56,30.40
2021,06,25,16,57,30.50
2021,06,25,16,58,30.50
2021,06,25,16,59,30.60
2021,06,25,17,00,30.60
2021,06,25,17,01,30.60
2021,06,25,17,02,30.60
2021,06,25,17,03,30.60
2021,06,25,17,04,30.60
2021,06,25,17,05,30.60
2021,06,25,17,06,30.50
2021,06,25,17,07,30.50
2021,06,25,17,08,30.60
2021,06,25,17,09,30.60
2021,06,25,17,10,30.60
2021,06,25,17,11,30.60
2021,06,25,17,12,30.70
2021,06,25,17,13,30.80
2021,06,25,17,14,30.90
2021,06,25,17,15,31.00
2021,06,25,17,16,31.00
2021,06,25,17,17,31.10
2021,06,25,17,18,31.00
2021,06,25,17,19,31.00